Regional Weather Roundup
Issued by NWS

Home | Current Version | Previous Version | Graphics & Text | Print | Product List | Glossary On
Versions: 1 2 3 4 5 6 7 8 9 10 11 12 13 14 15 16 17 18 19 20 21 22 23 24 25 26 27 28 29 30 31 32 33 34 35 36 37 38 39 40 41 42 43 44 45 46 47 48 49 50
000
ASUS43 KMKX 221721
RWRWI

WISCONSIN REGIONAL WEATHER ROUNDUP
NATIONAL WEATHER SERVICE MILWAUKEE/SULLIVAN WI
1200 PM CDT SAT JUL 22 2017

NOTE: "FAIR" INDICATES FEW OR NO CLOUDS BELOW 12,000 FEET WITH NO
SIGNIFICANT WEATHER AND/OR OBSTRUCTIONS TO VISIBILITY.

WIZ001-002-006>008-014>016-023>028-221800-
NORTHWEST WISCONSIN

CITY           SKY/WX    TMP DP  RH WIND       PRES   REMARKS
SUPERIOR ARPT  NOT AVBL
ASHLAND        PTSUNNY   72  65  78 NE3       29.82S
HAYWARD        MOSUNNY   76  66  71 VRB3      29.83S
SIREN          SUNNY     79  66  65 CALM      29.84S HX  81
CUMBERLAND     MOSUNNY   77  66  69 W5        29.85S
RICE LAKE      MOSUNNY   79  67  67 SW3       29.85F HX  81
CHETEK         SUNNY     81  69  68 CALM      29.84S HX  84
LADYSMITH      SUNNY     78  66  64 S5        29.86S HX  80
EAU CLAIRE     SUNNY     82  66  58 CALM      29.83S HX  84
MENOMONIE      SUNNY     83  68  60 S6        29.83S HX  86
NEW RICHMOND   SUNNY     83  69  62 W5        29.83S HX  86
OSCEOLA        SUNNY     82  69  64 CALM      29.85F HX  85
$$

WIZ003>005-009-010-017-018-221800-
NORTH CENTRAL WISCONSIN

CITY           SKY/WX    TMP DP  RH WIND       PRES   REMARKS
MANITOWISH WTR CLOUDY    75  66  74 NW6       29.83F
ARBOR VITAE    MOSUNNY   77  65  67 W8        29.83F
WOODRUFF       MOSUNNY   77  65  67 W8        29.83F
RHINELANDER    CLOUDY    78  65  63 W5        29.85S HX  80
EAGLE RIVER    PTSUNNY   76  62  62 W5        29.84S
LAND O LAKES   MOSUNNY   78  63  60 W5        29.85F
PHILLIPS       SUNNY     79  66  65 CALM      29.83S HX  81
TOMAHAWK         N/A     78  64  61 W7        29.84S HX  80
MEDFORD        MOSUNNY   76  65  67 W5        29.86R
MERRILL        MOSUNNY   78  66  67 CALM      29.84S HX  80
$$

WIZ029-030-035-036-043>047-221800-
CENTRAL WISCONSIN

CITY           SKY/WX    TMP DP  RH WIND       PRES   REMARKS
WAUSAU         SUNNY     77  66  68 SW6       29.82F
MOSINEE        MOSUNNY   77  66  69 CALM      29.85F
MARSHFIELD     MOSUNNY   79  67  66 CALM      29.84F HX  81
STEVENS POINT  MOSUNNY   76  67  73 CALM      29.85S
WAUPACA        PTSUNNY   78  68  70 S3        29.84F HX  80
WAUTOMA        CLOUDY    74  68  81 CALM      29.85F
WISC RAPIDS    PTSUNNY   76  69  79 VRB3      29.86F
CAMP DOUGLAS   CLOUDY    73  72  94 CALM      29.86S
$$

WIZ011>013-019>022-031-037>040-048>050-221800-
NORTHEAST WISCONSIN

CITY           SKY/WX    TMP DP  RH WIND       PRES   REMARKS
ANTIGO         MOSUNNY   76  65  67 NW3       29.85S
SHAWANO        CLOUDY    79  67  66 S5        29.82F HX  81
OCONTO         CLOUDY    75  64  69 S6        29.82S
STURGEON BAY     N/A     75  65  70 VRB7      29.84S
GREEN BAY      CLOUDY    79  68  69 VRB5      29.82F HX  81
MANITOWOC      CLOUDY    74  66  76 E6        29.83F
APPLETON       PTSUNNY   75  63  64 VRB5      29.83F
CLINTONVILLE   CLOUDY    75  64  69 W5        29.83F
OSHKOSH        CLOUDY    78  67  68 VRB3      29.83F HX  80
$$

WIZ032>034-041-042-053>061-221800-
SOUTHWEST WISCONSIN

CITY           SKY/WX    TMP DP  RH WIND       PRES   REMARKS
LA CROSSE      CLOUDY    76  71  85 N5        29.85F
SPARTA         CLOUDY    73  68  84 N3        29.86F
VIROQUA        CLOUDY    73  72  98 CALM      29.88S
BOSCOBEL       CLOUDY    78  72  81 N5        29.84F HX  80
PRAIRIE DU CHI CLOUDY    78  70  75 N3        29.82F HX  80
PLATTEVILLE    CLOUDY    79  75  88 NW6       29.85S HX  82
$$

WIZ056-057-062-063-064-067-068-221800-
SOUTH CENTRAL WISCONSIN

CITY           SKY/WX    TMP DP  RH WIND       PRES   REMARKS
REEDSBURG      CLOUDY    73  72  98 N3        29.86S
BARABOO/DELLS  CLOUDY    72  68  88 NW3       29.87R
LONE ROCK      CLOUDY    75  70  84 NW5       29.84F
MINERAL POINT  CLOUDY    79  73  83 NW6       29.86S HX  82
MADISON        CLOUDY    73  70  90 N6        29.84F
MIDDLETON      CLOUDY    76  74  95 NW7       29.86S
WATERTOWN      CLOUDY    74  73  98 NW7       29.84F
MONROE         CLOUDY    79  70  73 NW7       29.85S HX  81
JANESVILLE     PTSUNNY   81  70  69 NW12      29.83F HX  84
$$

WIZ051-052-058>065-066-070>072-221800-
SOUTHEAST WISCONSIN

CITY           SKY/WX    TMP DP  RH WIND       PRES   REMARKS
MILWAUKEE      LGT RAIN  76  70  82 NW12      29.84R
WAUKESHA       CLOUDY    70  70 100 NW6       29.86R FOG
MILWAUKEE/TIMM CLOUDY    73  66  78 W7        29.85R
RACINE         CLOUDY    76  70  82 W10       29.85R
KENOSHA        CLOUDY    79  69  71 NW8       29.83S HX  81
FOND DU LAC    CLOUDY    76  66  71 CALM      29.84S
SHEBOYGAN      PTSUNNY   74  70  87 N6        29.83F
WEST BEND      CLOUDY    72  70  94 N5        29.84F
JUNEAU         CLOUDY    72  68  88 CALM      29.86F
$$

LSZ147-162-221800-
LAKE SUPERIOR

STATION/POSITION TIME  TEMP    WIND        PRES    WAVE
                       AIR SEA DIR/SP/G            HT/PER
                 (UTC) (F)     (DEG/KT/KT) (MB)    (FT/S)
W MID LAKE BUOY  1650   49 47  360/  8/ 10 1010.5R   2/ 5
DEVILS ISLAND    1700   55      40/  7/  8 1010.4F
PORT WING        1525   60     350/  5/  8 1011.2
SAXON HARBOR     1640   64      50/  7/ 11 1009.5F
$$

LMZ867-665-643>646-221800-
LAKE MICHIGAN

STATION/POSITION TIME  TEMP    WIND        PRES    WAVE
                       AIR SEA DIR/SP/G            HT/PER
                 (UTC) (F)     (DEG/KT/KT) (MB)    (FT/S)
CHAMBERS ISLAND  1640   72      80/  6/  8 1009.5F
S GREEN BAY BUOY 1700   74 74   CALM  /  2 1010.1
N MID LAKE BUOY  1650   68 67  340/  2/  4 1010.5F   1
NORTHPORT PIER   1640   74      70/  1/  2 1010.2F
KEWAUNEE LAKESHO 1654   72      40/  1/  4 1009.8R
SHEBOYGAN LAKESH 1700   68      10/  6/  6 1009.7F
PORT WASHINGTON  1640   71      70/  5/  8 1011.2R
ATWATER BUOY     1609   69 68   80/  2/  4 1010.4R
MILWAUKEE LAKESH 1700   73      50/  4/  5   N/A
S MID LAKE BUOY  1650   71 70  320/  4/  4 1009.5F   2/ 6
KENOSHA   LAKESH 1700   77     310/  8/ 13 1009.5
$$

TC  - TEMPERATURE IN CELSIUS
VSB - VISIBILITY IN STATUTE MILES
WCI - WIND CHILL INDEX
HX  - HEAT INDEX





USA.gov is the U.S. government's official web portal to all federal, state and local government web resources and services.